Location: ?????????
(54.7630°N, 39.4991°E)
Time: 11:51:54
(UTC+00:00)

ADEOS Rocket - Pass Details

Date: 14 April 2026
Orbit: 859 x 1304 km, 98.8° (Epoch: 10 May)

Event Time Altitude Azimuth Distance (km) Brightness Sun altitude
Rises 23:08:14 0° 17° (NNE) 4,022 7.6 -21.8°
Reaches altitude 10° 23:10:50 10° 22° (NNE) 3,114 6.8 -21.6°
Maximum altitude 23:17:56 55° 99° (E) 1,477 4.0 -21.1°
Enters shadow 23:23:12 21° 170° (S) 2,554 4.8 -20.7°
